Regional Weather Roundup
Issued by NWS

Home | Current Version | Previous Version | Text Only | Print | Product List | Glossary On
Versions: 1 2 3 4 5 6 7 8 9 10 11 12 13 14 15 16 17 18 19 20 21 22 23 24 25 26 27 28 29 30 31 32 33 34 35 36 37 38 39 40 41 42 43 44 45 46 47 48 49 50
000
ASUS42 KKEY 060810
RWRKEY

FLORIDA REGIONAL WEATHER ROUNDUP FOR THE FLORIDA KEYS
NATIONAL WEATHER SERVICE KEY WEST FLORIDA
300 AM EST SAT FEB 06 2016

...SOUTH FLORIDA AND THE KEYS...

CITY           SKY/WX    TMP DP  RH WIND       PRES   REMARKS
FORT MYERS     CLOUDY    52  46  80 NE10      30.14S
SW REGIONAL AP CLOUDY    53  45  74 N7        30.14F
NAPLES         CLOUDY    55  48  77 NE10      30.11F
MIAMI          MOCLDY    60  55  83 CALM      30.09F
WEST KENDALL   MOCLDY    59  56  89 NE5       30.09F
HOMESTEAD      CLEAR     60  55  85 N2        30.08F
MARATHON       CLEAR     64  59  83 NE14      30.06F
BOCA CHICA NAS CLEAR     64  58  80 NE12      30.06F
KEY WEST INTL  CLEAR     64  60  87 NE10      30.07F

...INTERNATIONAL WEATHER...

CITY           SKY/WX    TMP DP  RH WIND       PRES   REMARKS
NASSAU BAHAMAS NOT AVBL
CANCUN MEXICO  CLOUDY    70  64  83 N6        30.09R
COZUMEL MEXICO CLOUDY    70  64  83 NE12      30.06F

ADJACENT COASTAL WATERS...

STATION/POSITION TIME  SKY/WX   TEMP    WIND        PRES    WAVE
                                AIR SEA DIR/SP/G            HT/PER
                 (UTC)          (F)     (DEG/KT/KT) (MB)    (FT/S)
PULASKI SHOAL LI 0700                                 N/A
SAND KEY         0750            66      50/ 13/ 17 1018.3F
SOMBRERO KEY     NOT AVBL
LONG KEY         0700            64 70   30/ 15/ 17 1020.0F
MOLASSES REEF    0800            72 75   70/ 17/ 18 1018.1F
FOWEY ROCKS      NOT AVBL

$$



USA.gov is the U.S. government's official web portal to all federal, state and local government web resources and services.